FENGYUN 1C DEB

Satellite information

Favourite Embed

Satellite Type and Status

DEBRISIN ORBIT

Key statistics

Satellite FENGYUN 1C DEB at a glance.

Uptime

9665

Days in orbit

Revolutions

≈ 14.8

Per day

Orbit

SSO

Sun Synchronous Orbit

Inclination

98.9

Latest

Satellite identification and parameters

Extended collection of information and parameters for FENGYUN 1C DEB.

Object identification

Identified? True

Debris? True

Object name: FENGYUN 1C DEB

International designator: 1999-025AVL

Object number (NORAD): 30826

Object ID (CCSDS): 30826

Country: PEOPLES REPUBLIC OF CHINA (PRC)

Current information (Y/N): Y

RCS size: SMALL

Orbital parameters

Period: 97.195 minutes

Inclination: 98.871 deg

SMA: 7002.534 km

Apoapsis: 727.43 km

Periapsis: 521.368 km

RAAN: 127.7706 deg

Eccentricy: 0.01471337

Argument of periapsis: 150.6163 deg

Mean anomaly: 6.4581 deg

Mean motion: 14.81562413 rev/day

Mean motion (dot): 0.00007916 rev/day2

B* drag term: 0.00084263247 1/REarth

Two-line elements (TLE)

Creation date: Oct. 25, 2025, 3:11 a.m.

Reference frame: TEME

Reference center: EARTH

Epoch: Oct. 25, 2025, 12:01 a.m. UTC

TLE line 0: 0 FENGYUN 1C DEB

TLE line 1: 1 30826U 99025AVL 25298.00136681 .00007916 00000-0 84263-3 0 9994

TLE line 2: 2 30826 98.8710 127.7706 0147134 150.6163 6.4581 14.81562413995682

Live tracking on map

Real-time ground track for satellite FENGYUN 1C DEB.

In-orbit conjunctions

A list of the most updated potential collisions computed for object FENGYUN 1C DEB.

Target Orbit TCA Probability of collision Miss distance Type
SINAH 1 SSO 2025-10-04 06:04:53 0.0003485933 481.0 (m) PAYLOAD
CBERS 1 SSO 2024-08-05 09:52:45 0.0001052123 655.0 (m) PAYLOAD

Associated space launch

Chinese polar orbiting meteorological satellite

FENGYUN 1C DEB was lifted into orbit during the mission ‘Long March 4B | Feng Yun 1C’, on board a Long March 4B space rocket.

The launch took place on May 10, 1999, 1:33 a.m. from Launch Complex 7.

For more information about the launch, click the button.

Launch to space Long March 4B | Feng Yun 1C
Long March 4B | Feng Yun 1C

Agency: N/A

Status: Launch Successful

Launch date: May 10, 1999, 1:33 a.m. UTC

Rocket: Long March 4B

Launch pad: Launch Complex 7

Location: Taiyuan Satellite Launch Center, People's Republic of China

...

Latest news about this satellite

There are no fresh news available about this satellite. Check back as we update our databases every day.


Newsletter sign-up

Weekly statistics, charts and insights to help you stay on top of the space industry.